[[{"header":{"parameterUnit":"m.s-1","parameterCategory":1,"la1":30.2991,"la2":30.254,"lo1":-89.0895,"lo2":-89.0444,"dy":0.0017,"dx":0.0017,"nx":28,"ny":28,"refTime":"2024-10-17T21:00:00:Z","depth":0,"parameterNumber":2,"parameterNumberName":"U-component_of_WINDS"},"data":[0,0,0,0,0,0,0,0,0,0,0,0,0,0,0,0,0,0,0,0,0,0,0,0,0,0,0,0,0,0,0,0,0,0,0,0,0,0,0,0,0,0,0,0,0,0,0,0,0,0,0,0,0,0,0,0,0,0,-2.6518,-2.6519,0,-2.6552,-2.6553,-2.6553,-2.6475,-2.6472,-2.647,-2.6467,-2.6501,-2.6504,-2.6507,0,0,0,0,0,0,0,0,0,0,0,0,0,-2.6384,-2.6387,-2.6518,-2.6519,-2.6519,-2.6552,-2.6553,-2.6553,-2.6475,-2.6472,-2.6469,-2.6466,-2.65,-2.6504,-2.6508,0,0,0,0,0,0,0,0,0,0,0,0,0,-2.6433,-2.6388,-2.6518,-2.6484,-2.6482,-2.6552,-2.6553,-2.6553,-2.6476,-2.6472,-2.6468,-2.6465,-2.6499,-2.6503,-2.6508,-2.6613,0,0,-2.6523,-2.6525,0,0,0,0,0,0,0,0,-2.643,-2.6438,-2.6489,-2.6487,-2.6484,-2.6505,-2.6517,-2.6573,-2.6477,-2.6478,-2.6467,-2.6463,-2.6505,-2.6509,-2.6524,-2.6614,-2.6615,-2.6523,-2.6526,-2.6528,-2.653,0,0,0,0,0,0,0,-2.6427,-2.6436,-2.6532,-2.649,-2.6487,-2.6467,-2.6469,-2.6528,-2.6512,-2.6478,-2.6472,-2.6477,-2.6503,-2.6519,-2.6524,-2.6616,-2.6523,-2.6527,-2.653,-2.6532,-2.6791,-2.6795,0,0,0,0,0,0,-2.6428,-2.6434,-2.6531,-2.6533,-2.6447,-2.6472,-2.6475,-2.6502,-2.6511,-2.6509,-2.648,-2.6473,-2.6513,-2.6519,-2.6525,-2.6646,-2.6528,-2.6533,-2.6535,-2.6787,-2.6792,-2.6796,0,0,0,0,0,0,-2.6425,-2.6437,-2.6529,-2.6482,-2.6492,-2.6478,-2.6509,-2.6505,-2.6521,-2.6513,-2.651,-2.65,-2.651,-2.6518,-2.6591,-2.6646,-2.6535,-2.6539,-2.6782,-2.6789,-2.6794,-2.6891,0,0,0,0,0,0,-2.6422,-2.6437,-2.6477,-2.6483,-2.6495,-2.6596,-2.6513,-2.6508,-2.653,-2.6521,-2.6531,-2.6529,-2.6508,-2.6584,-2.6596,-2.6651,-2.6543,-2.6777,-2.6785,-2.6792,-2.6882,-2.6899,-2.6913,0,0,0,0,0,-2.6417,-2.6503,-2.648,-2.6492,-2.6545,-2.6599,-2.6605,-2.658,-2.6535,-2.6574,-2.6569,-2.6529,-2.6639,-2.6592,-2.6605,-2.6662,-2.6774,-2.6783,-2.6792,-2.6875,-2.6896,-2.6913,0,0,0,0,0,0,-2.6504,-2.6503,-2.6477,-2.6568,-2.6584,-2.6586,-2.6635,-2.6603,-2.6632,-2.6623,-2.6589,-2.6592,-2.6671,-2.6674,-2.6622,-2.6762,-2.6698,-2.671,-2.6758,-2.6777,-2.6792,-2.6789,-2.6547,0,0,0,0,0,-2.6534,-2.6579,-2.6575,-2.6655,-2.6665,-2.6649,-2.6672,-2.665,-2.6666,-2.6672,-2.6672,-2.6688,-2.6726,-2.6752,-2.6787,-2.6883,-2.6883,-2.6928,-2.6944,-2.6956,-2.6967,-2.7016,-2.7035,-2.6826,-2.6826,-2.6825,0,0,-2.6596,-2.6601,-2.6631,-2.6673,-2.6683,-2.6729,-2.6655,-2.6707,-2.6741,-2.668,-2.6748,-2.6749,-2.6764,-2.6849,-2.6886,-2.6854,-2.7025,-2.6968,-2.6978,-2.6981,-2.7027,-2.7047,-2.7064,-2.6832,-2.6831,-2.683,0,0,-2.6731,-2.674,-2.6807,-2.6819,-2.6835,-2.6823,-2.6839,-2.6846,-2.6844,-2.6912,-2.6867,-2.6906,-2.6972,-2.6984,-2.7,-2.7139,-2.7102,-2.7151,-2.7232,-2.728,-2.7296,-2.7311,-2.7359,-2.7376,-2.7161,-2.7162,-2.7162,0,-2.6806,-2.6874,-2.6845,-2.69,-2.6919,-2.6866,-2.6933,-2.6945,-2.6972,-2.6986,-2.695,-2.7031,-2.7038,-2.7123,-2.7157,-2.7171,-2.7187,-2.7149,-2.7296,-2.731,-2.7323,-2.7369,-2.7387,-2.7167,-2.7167,-2.7166,-2.7166,0,-2.6964,-2.7011,-2.7063,-2.709,-2.7115,-2.7176,-2.7155,-2.7184,-2.7161,-2.7153,-2.7222,-2.7228,-2.7262,-2.7281,-2.7259,-2.7363,-2.7342,-2.7302,-2.7236,-2.735,-2.7391,-2.7409,-2.7176,-2.7173,-2.7172,-2.717,0,0,-2.7155,-2.7164,-2.7184,-2.7194,-2.7208,-2.7244,-2.7301,-2.7335,-2.7359,-2.7379,-2.7425,-2.7482,-2.7444,-2.7462,-2.744,-2.7483,-2.759,-2.7437,-2.7436,-2.7464,-2.7703,-2.7733,-2.7753,-2.7566,-2.757,-2.7572,-2.7701,0,-2.7288,-2.7387,-2.7362,-2.746,-2.7502,-2.7452,-2.7502,-2.7515,-2.7509,-2.7544,-2.7537,-2.7577,-2.7525,-2.7535,-2.7575,-2.7569,-2.7638,-2.7559,-2.7608,-2.761,-2.7604,-2.7775,-2.7807,-2.7929,-2.7718,-2.772,-2.7723,0,-2.7456,-2.7482,-2.7584,-2.7588,-2.7605,-2.7651,-2.7678,-2.7713,-2.7726,-2.7718,-2.7737,-2.7707,-2.7762,-2.7697,-2.7773,-2.772,-2.7738,-2.7738,-2.7742,-2.7745,-2.7672,-2.7781,-2.7967,-2.7985,-2.7748,-2.7746,-2.7744,0,-2.7583,-2.7643,-2.7711,-2.7722,-2.773,-2.7763,-2.7768,-2.7777,-2.7798,-2.7822,-2.7835,-2.7866,-2.7882,-2.7906,-2.7885,-2.784,-2.7962,-2.7896,-2.7957,-2.7957,-2.7984,-2.7982,-2.8174,-2.7998,-2.7998,-2.7998,-2.7997,0,-2.7733,-2.7797,-2.7768,-2.781,-2.788,-2.7851,-2.792,-2.7919,-2.7928,-2.7968,-2.7927,-2.7965,-2.7935,-2.797,-2.7954,-2.8017,-2.8026,-2.802,-2.8015,-2.8023,-2.8023,-2.8034,-2.8024,-2.8003,-2.8002,-2.8001,-2.8,0,-2.7886,-2.787,-2.7941,-2.7942,-2.7944,-2.7995,-2.7995,-2.8034,-2.8024,-2.8075,-2.8086,-2.8071,-2.811,-2.8091,-2.8133,-2.8121,-2.8203,-2.8187,-2.8199,-2.8194,-2.8255,-2.8248,-2.8458,-2.8484,-2.8294,-2.8295,-2.8297,0,-2.7982,-2.803,-2.8036,-2.806,-2.8067,-2.8106,-2.8127,-2.81,-2.8124,-2.8142,-2.8177,-2.8213,-2.824,-2.8305,-2.8298,-2.8329,-2.8312,-2.8383,-2.8316,-2.8323,-2.8311,-2.8308,-2.8312,-2.8397,-2.8399,-2.8401,-2.8402,0,-2.8154,-2.8143,-2.8175,-2.8204,-2.823,-2.8252,-2.827,-2.8292,-2.8265,-2.8293,-2.8333,-2.8354,-2.8396,-2.8431,-2.8458,-2.8461,-2.8427,-2.8423,-2.8439,-2.8447,-2.8451,-2.8448,-2.8233,-2.8418,-2.8417,-2.8416,-2.8415,-2.8414,-2.828,-2.8319,-2.8329,-2.8366,-2.8377,-2.8394,-2.843,-2.8424,-2.8457,-2.8489,-2.8471,-2.8517,-2.8527,-2.8559,-2.8567,-2.8602,-2.8574,-2.8597,-2.8602,-2.8608,-2.8615,-2.8447,-2.8607,-2.8607,-2.8606,-2.8606,-2.8606,0,-2.8448,-2.8451,-2.8485,-2.8512,-2.854,-2.8506,-2.8524,-2.8549,-2.859,-2.8603,-2.863,-2.8675,-2.8709,-2.8704,-2.8735,-2.8763,-2.8748,-2.8772,-2.8769,-2.877,-2.8639,-2.8622,-2.8784,-2.8784,-2.8784,-2.8784,-2.8784,-2.8784,-2.8538,-2.8602,-2.8593,-2.8662,-2.8665,-2.8709,-2.8722,-2.8738,-2.8747,-2.8799,-2.8827,-2.8824,-2.8829,-2.8859,-2.8888,-2.8886,-2.8898,-2.8928,-2.892,-2.8797,-2.878,-2.8763,-2.8746,-2.8931,-2.8931,-2.9047,-2.9048,-2.9049]},{"header":{"parameterUnit":"m.s-1","parameterCategory":1,"la1":30.2991,"la2":30.254,"lo1":-89.0895,"lo2":-89.0444,"dy":0.0017,"dx":0.0017,"nx":28,"ny":28,"refTime":"2024-10-17T21:00:00:Z","depth":0,"parameterNumber":3,"parameterNumberName":"V-component_of_WINDS"},"data":[0,0,0,0,0,0,0,0,0,0,0,0,0,0,0,0,0,0,0,0,0,0,0,0,0,0,0,0,0,0,0,0,0,0,0,0,0,0,0,0,0,0,0,0,0,0,0,0,0,0,0,0,0,0,0,0,0,0,-3.6038,-3.6038,0,-3.6082,-3.6082,-3.6083,-3.6046,-3.6045,-3.6043,-3.6042,-3.6084,-3.6086,-3.6089,0,0,0,0,0,0,0,0,0,0,0,0,0,-3.5917,-3.592,-3.6038,-3.6038,-3.6039,-3.6082,-3.6082,-3.6083,-3.6047,-3.6045,-3.6043,-3.6041,-3.6083,-3.6086,-3.6089,0,0,0,0,0,0,0,0,0,0,0,0,0,-3.5966,-3.5921,-3.6037,-3.6026,-3.6025,-3.6082,-3.6082,-3.6083,-3.6047,-3.6045,-3.6042,-3.604,-3.6082,-3.6085,-3.6089,-3.6158,0,0,-3.6101,-3.6102,0,0,0,0,0,0,0,0,-3.5963,-3.5971,-3.6027,-3.6027,-3.6026,-3.6056,-3.6055,-3.6108,-3.6048,-3.6039,-3.6042,-3.6039,-3.6076,-3.608,-3.6093,-3.616,-3.6162,-3.6101,-3.6103,-3.6105,-3.6106,0,0,0,0,0,0,0,-3.596,-3.5969,-3.6055,-3.6028,-3.6027,-3.6017,-3.6021,-3.6065,-3.6069,-3.6039,-3.6037,-3.6043,-3.6075,-3.609,-3.6094,-3.6162,-3.6101,-3.6104,-3.6107,-3.6108,-3.6285,-3.6287,0,0,0,0,0,0,-3.5959,-3.5966,-3.6054,-3.6056,-3.5989,-3.6021,-3.6026,-3.6049,-3.6069,-3.607,-3.6045,-3.6041,-3.6084,-3.609,-3.6095,-3.6175,-3.6105,-3.6109,-3.6111,-3.6283,-3.6286,-3.6288,0,0,0,0,0,0,-3.5956,-3.5967,-3.6052,-3.601,-3.6021,-3.6025,-3.6052,-3.6051,-3.6065,-3.6073,-3.6073,-3.6059,-3.6083,-3.609,-3.6142,-3.6176,-3.611,-3.6114,-3.628,-3.6284,-3.6287,-3.6337,0,0,0,0,0,0,-3.5953,-3.5966,-3.5994,-3.6011,-3.6023,-3.61,-3.6054,-3.6053,-3.6072,-3.6068,-3.6086,-3.6087,-3.6082,-3.6137,-3.6146,-3.618,-3.6117,-3.6277,-3.6281,-3.6286,-3.6332,-3.6342,-3.635,0,0,0,0,0,-3.5949,-3.6006,-3.5995,-3.6006,-3.6058,-3.6102,-3.6108,-3.6101,-3.6075,-3.6102,-3.6106,-3.6087,-3.6172,-3.6143,-3.6153,-3.6189,-3.6274,-3.628,-3.6285,-3.6328,-3.634,-3.635,0,0,0,0,0,0,-3.5991,-3.6008,-3.5996,-3.6061,-3.608,-3.6095,-3.6129,-3.6115,-3.6141,-3.6135,-3.6125,-3.6129,-3.6184,-3.6192,-3.6159,-3.6255,-3.6219,-3.6226,-3.6248,-3.6259,-3.6268,-3.6264,-3.612,0,0,0,0,0,-3.6008,-3.6044,-3.6056,-3.6112,-3.6122,-3.6124,-3.6143,-3.6136,-3.6155,-3.6163,-3.6171,-3.6189,-3.622,-3.624,-3.6269,-3.6334,-3.6336,-3.6363,-3.6372,-3.6379,-3.6386,-3.6418,-3.6429,-3.6306,-3.6306,-3.6306,0,0,-3.6043,-3.6057,-3.608,-3.6121,-3.6135,-3.617,-3.6131,-3.6171,-3.6196,-3.6169,-3.6218,-3.6225,-3.6244,-3.6303,-3.6329,-3.6311,-3.642,-3.6386,-3.6392,-3.6394,-3.6425,-3.6436,-3.6447,-3.631,-3.6309,-3.6309,0,0,-3.6124,-3.614,-3.6187,-3.6202,-3.6224,-3.6224,-3.6236,-3.6253,-3.6256,-3.6306,-3.6286,-3.6315,-3.6369,-3.6383,-3.6397,-3.6482,-3.6464,-3.6492,-3.6538,-3.657,-3.6579,-3.6588,-3.6616,-3.6626,-3.6499,-3.6499,-3.6499,0,-3.6165,-3.6219,-3.6212,-3.6253,-3.6271,-3.6248,-3.6294,-3.6309,-3.6339,-3.635,-3.633,-3.6396,-3.6407,-3.6467,-3.6488,-3.6501,-3.6512,-3.6489,-3.6579,-3.6587,-3.6595,-3.6622,-3.6632,-3.6502,-3.6501,-3.6501,-3.6501,0,-3.6266,-3.6304,-3.6339,-3.6369,-3.639,-3.6434,-3.6432,-3.6455,-3.6446,-3.6448,-3.6498,-3.6511,-3.6541,-3.6555,-3.6547,-3.6614,-3.6601,-3.658,-3.6543,-3.661,-3.6635,-3.6645,-3.6506,-3.6505,-3.6504,-3.6503,0,0,-3.6375,-3.64,-3.6413,-3.6425,-3.6447,-3.6475,-3.6517,-3.6547,-3.6565,-3.6587,-3.6619,-3.6665,-3.6645,-3.6661,-3.6654,-3.6682,-3.6746,-3.6657,-3.6657,-3.6671,-3.6817,-3.6831,-3.6844,-3.6735,-3.6737,-3.6739,-3.6815,0,-3.6456,-3.6529,-3.6524,-3.6592,-3.6625,-3.6603,-3.6639,-3.6656,-3.6659,-3.6686,-3.6689,-3.672,-3.6693,-3.6702,-3.6729,-3.6733,-3.6775,-3.6727,-3.6763,-3.6764,-3.6757,-3.6857,-3.6873,-3.6944,-3.6825,-3.6826,-3.6828,0,-3.656,-3.6584,-3.6656,-3.6671,-3.6685,-3.6717,-3.6743,-3.6771,-3.6788,-3.6788,-3.6806,-3.6794,-3.6833,-3.6797,-3.685,-3.6818,-3.6832,-3.6836,-3.6839,-3.684,-3.6799,-3.6859,-3.6967,-3.6977,-3.6843,-3.6842,-3.6841,0,-3.6629,-3.668,-3.6729,-3.6741,-3.676,-3.6783,-3.6792,-3.6808,-3.6825,-3.6848,-3.6859,-3.6886,-3.69,-3.692,-3.6915,-3.6889,-3.6968,-3.6932,-3.6967,-3.6968,-3.6984,-3.6982,-3.7093,-3.6997,-3.6997,-3.6996,-3.6996,0,-3.6718,-3.6762,-3.676,-3.679,-3.6838,-3.6831,-3.6878,-3.6884,-3.6898,-3.6927,-3.6911,-3.6938,-3.6931,-3.6958,-3.6954,-3.6997,-3.7004,-3.7004,-3.7002,-3.7004,-3.7004,-3.7012,-3.7006,-3.6999,-3.6999,-3.6998,-3.6998,0,-3.6803,-3.6804,-3.6855,-3.687,-3.6874,-3.6908,-3.692,-3.6947,-3.6949,-3.6986,-3.6994,-3.6996,-3.7027,-3.7024,-3.7059,-3.7056,-3.7109,-3.7102,-3.7103,-3.71,-3.7135,-3.7131,-3.7254,-3.7268,-3.7164,-3.7165,-3.7166,0,-3.6859,-3.6892,-3.691,-3.6929,-3.6939,-3.697,-3.6988,-3.6982,-3.7001,-3.7023,-3.7047,-3.7076,-3.7099,-3.7148,-3.7152,-3.7177,-3.717,-3.7211,-3.7173,-3.7174,-3.7167,-3.7165,-3.7167,-3.7217,-3.7219,-3.722,-3.722,0,-3.6957,-3.6955,-3.6983,-3.701,-3.7031,-3.7052,-3.7071,-3.7087,-3.7083,-3.7105,-3.7136,-3.7154,-3.7189,-3.7217,-3.7241,-3.7248,-3.7233,-3.7232,-3.7241,-3.7243,-3.7241,-3.724,-3.712,-3.7229,-3.7228,-3.7228,-3.7227,-3.7227,-3.7027,-3.7055,-3.7072,-3.7102,-3.7115,-3.7133,-3.7159,-3.7163,-3.719,-3.7218,-3.7213,-3.7247,-3.7262,-3.7293,-3.7303,-3.7329,-3.7313,-3.7327,-3.733,-3.7333,-3.7336,-3.7239,-3.7333,-3.7333,-3.7333,-3.7332,-3.7332,0,-3.7123,-3.7132,-3.716,-3.7187,-3.721,-3.7195,-3.7215,-3.7234,-3.7265,-3.7281,-3.7304,-3.7338,-3.7365,-3.7371,-3.7397,-3.7416,-3.7409,-3.7423,-3.742,-3.7422,-3.7349,-3.7338,-3.7428,-3.7427,-3.7427,-3.7427,-3.7427,-3.7427,-3.7175,-3.722,-3.722,-3.7271,-3.728,-3.7314,-3.7327,-3.7342,-3.7354,-3.7394,-3.7417,-3.7421,-3.7432,-3.7458,-3.7481,-3.7482,-3.7491,-3.7507,-3.7504,-3.7437,-3.7427,-3.7418,-3.7407,-3.7509,-3.7509,-3.7574,-3.7575,-3.7575]}]]